Regional Weather Roundup
Issued by NWS

Home | Current Version | Previous Version | Graphics & Text | Print | Product List | Glossary On
Versions: 1 2 3 4 5 6 7 8 9 10 11 12 13 14 15 16 17 18 19 20 21 22 23 24 25 26 27 28 29 30 31 32 33 34 35 36 37 38 39 40 41 42 43 44 45 46 47 48 49 50
000
ASUS43 KBIS 231120
RWRND

NORTH DAKOTA REGIONAL WEATHER ROUNDUP
NATIONAL WEATHER SERVICE BISMARCK ND
600 AM CDT SAT MAY 23 2015

NOTE: "FAIR" INDICATES FEW OR NO CLOUDS BELOW 12,000 FEET WITH NO
SIGNIFICANT WEATHER AND/OR OBSTRUCTIONS TO VISIBILITY.


NDZ001>003-009>011-017-231200-
NORTHWEST NORTH DAKOTA

CITY           SKY/WX    TMP DP  RH WIND       PRES   REMARKS
WILLISTON      CLEAR     40  35  83 N5        30.11S
MINOT          PTCLDY    50  38  63 CALM      30.12R
MINOT AFB      PTCLDY    49  42  77 CALM      30.11R
$$

NDZ018>021-031>035-040>046-231200-
SOUTHWEST NORTH DAKOTA

CITY           SKY/WX    TMP DP  RH WIND       PRES   REMARKS
BISMARCK       CLEAR     45  42  89 SE9       30.17R
DICKINSON      PTCLDY    40  36  86 SE9       30.10R
GARRISON         N/A     45  41  86 CALM      30.14R
HETTINGER ARPT MOCLDY    41  38  89 E8        30.12R
$$

NDZ004>008-012>016-024-026-027-054-231200-
NORTHEAST NORTH DAKOTA

CITY           SKY/WX    TMP DP  RH WIND       PRES   REMARKS
GRAND FORKS    PTCLDY    47  40  76 SE6       30.13S
GRND FRKS AFB  CLEAR     44  38  82 S2        30.13S
DEVILS LAKE    CLEAR     46  39  76 SE3       30.13S
$$

NDZ022-023-025-028>030-036>039-047>053-231200-
SOUTHEAST NORTH DAKOTA

CITY           SKY/WX    TMP DP  RH WIND       PRES   REMARKS
FARGO          CLEAR     50  44  80 S8        30.18R
JAMESTOWN      PTCLDY    50  43  77 SW7       30.17R
$$



USA.gov is the U.S. government's official web portal to all federal, state and local government web resources and services.